Tracking 30744 objects as of 23-Jun-2025
HD Live streaming from Space Station
objects crossing your sky now

STARLINK-32767

Track STARLINK-32767 now!
10-day predictions
STARLINK-32767 is classified as:


NORAD ID: 62601
Int'l Code: 2025-008Q
Perigee: 489.5 km
Apogee: 490.8 km
Inclination: 43.0 °
Period: 94.3 minutes
Semi major axis: 6861 km
RCS: Unknown
Launch date: January 13, 2025
Source: United States (US)
Launch site: AIR FORCE EASTERN TEST RANGE (AFETR)
Your satellite tracking list
Your tracking list is empty




NASA's NSSDC Master Catalog

Two Line Element Set (TLE):
1 62601U 25008Q   25173.37020121  .00017472  00000-0  64257-3 0  9992
2 62601  43.0005 307.9197 0000959 241.6930 118.3825 15.27598394 25810
Source of the keplerian elements: AFSPC